1513224000.97,42608,5.19,71912.3,-7.79,-22.87,-21.87,0,*52
1513224002.21,42609,5.19,71896.3,-7.75,-22.83,-21.87,0,*5B
1513224003.44,42610,5.19,71876.3,-7.79,-22.83,-21.87,0,*5F
1513224004.71,42611,5.19,71890.5,-7.79,-22.77,-21.87,0,*55
1513224005.95,42612,5.19,71886.8,-7.79,-22.73,-21.77,0,*5D
1513224007.17,42613,5.19,71880.5,-7.77,-22.67,-21.73,0,*53
1513224008.4,42614,5.19,71898.3,-7.77,-22.67,-21.73,0,*54
1513224009.61,42615,5.19,71900.3,-7.79,-22.67,-21.77,0,*5F
1513224010.9,42616,5.19,71918.8,-7.77,-22.77,-21.87,0,*5C
1513224012.14,42617,5.19,71910.3,-7.79,-22.87,-21.87,0,*5C
1513224013.35,42618,5.19,71900.3,-7.79,-22.83,-21.93,0,*52
1513224014.61,42619,5.19,71892.3,-7.77,-22.97,-21.97,0,*5C
1513224015.87,42620,5.19,71912.5,-7.77,-22.93,-21.97,0,*52
1513224017.12,42621,5.19,71906.3,-7.77,-22.83,-21.97,0,*52
1513224018.33,42622,5.19,71898.3,-7.79,-22.87,-21.93,0,*5F
1513224019.57,42623,5.19,71904.0,-7.79,-23.03,-21.93,0,*53
1513224020.81,42624,5.19,71910.3,-7.79,-22.97,-21.87,0,*5D
1513224022.05,42625,5.19,71900.3,-7.79,-22.83,-21.87,0,*59
1513224023.28,42626,5.19,71906.5,-7.79,-22.87,-21.87,0,*5E
1513224024.52,42627,5.19,71904.8,-7.79,-22.73,-21.77,0,*5B
1513224025.72,42628,5.19,71932.8,-7.79,-22.67,-21.73,0,*55
1513224026.95,42629,5.19,71902.0,-7.79,-22.63,-21.67,0,*55
1513224028.18,42630,5.19,71908.3,-7.81,-22.63,-21.73,0,*5F
1513224029.44,42631,5.19,71912.5,-7.81,-22.73,-21.77,0,*5B
1513224030.68,42632,5.19,71908.8,-7.81,-22.67,-21.77,0,*5D
1513224031.92,42633,5.19,71900.5,-7.81,-22.67,-21.77,0,*5C
1513224033.15,42634,5.19,71900.3,-7.81,-22.67,-21.77,0,*5B
1513224034.39,42635,5.19,71906.5,-7.81,-22.67,-21.77,0,*5A
1513224035.62,42636,5.19,71916.8,-7.81,-22.67,-21.73,0,*5D
1513224036.83,42637,5.19,71906.5,-7.79,-22.53,-21.73,0,*5C
1513224038.09,42638,5.19,71916.5,-7.81,-22.63,-21.67,0,*52
1513224039.3,42639,5.19,71930.3,-7.79,-22.53,-21.73,0,*52
1513224040.54,42640,5.19,71936.0,-7.81,-22.63,-21.77,0,*5C
1513224041.8,42641,5.19,71942.3,-7.81,-22.47,-21.77,0,*5B
1513224043.04,42642,5.19,71946.3,-7.81,-22.37,-21.77,0,*5F
1513224044.28,42643,5.19,71940.8,-7.81,-22.37,-21.77,0,*5E
1513224045.58,42644,5.19,71932.5,-7.81,-22.47,-21.87,0,*51
1513224046.8,42645,5.19,71918.0,-7.83,-22.53,-21.93,0,*52
1513224048.02,42646,5.19,71914.3,-7.83,-22.53,-21.93,0,*51
1513224049.26,42647,5.19,71918.3,-7.79,-22.37,-21.87,0,*52
1513224050.56,42648,5.19,71914.3,-7.81,-22.21,-21.87,0,*5D
1513224051.82,42649,5.19,71906.0,-7.79,-22.21,-21.87,0,*5B
1513224053.09,42650,5.19,71908.0,-7.79,-22.31,-21.87,0,*52
1513224054.35,42651,5.19,71910.3,-7.81,-22.37,-21.87,0,*52
1513224055.59,42652,5.19,71906.8,-7.83,-22.41,-21.97,0,*53
1513224056.83,42653,5.19,71920.0,-7.83,-22.41,-21.97,0,*52
1513224058.12,42654,5.19,71922.5,-7.81,-22.31,-21.87,0,*51
1513224059.41,42655,5.19,71930.0,-7.81,-22.21,-21.87,0,*51
1513224060.7,42656,5.19,71930.5,-7.81,-22.21,-21.87,0,*52
1513224062.0,42657,5.19,71924.5,-7.81,-22.17,-21.87,0,*56
1513224063.26,42658,5.19,71908.0,-7.81,-22.31,-21.93,0,*58
1513224064.53,42659,5.19,71908.3,-7.81,-22.31,-22.03,0,*53
1513224065.79,42660,5.19,71912.8,-7.81,-22.31,-22.03,0,*59
1513224067.05,42661,5.19,71908.3,-7.81,-22.31,-22.07,0,*5C
1513224068.27,42662,5.19,71916.8,-7.83,-22.37,-22.07,0,*5B
1513224069.53,42663,5.19,71928.3,-7.81,-22.31,-22.07,0,*5E
1513224070.79,42664,5.19,71946.0,-7.81,-22.21,-22.07,0,*58
1513224072.03,42665,5.19,71944.3,-7.83,-22.37,-22.21,0,*58
1513224073.25,42666,5.25,71952.5,-7.83,-22.41,-22.27,0,*5C
1513224074.46,42667,5.19,71922.3,-7.83,-22.63,-22.37,0,*5C
1513224075.67,42668,5.19,71896.5,-7.83,-22.67,-22.53,0,*55
1513224076.89,42669,5.19,71894.5,-7.83,-22.67,-22.53,0,*54
1513224078.11,42670,5.19,71924.0,-7.83,-22.57,-22.53,0,*5F
1513224079.38,42671,5.19,71932.3,-7.83,-22.21,-22.21,0,*5A
1513224080.6,42672,5.19,71936.0,-7.83,-22.53,-22.37,0,*5B
1513224081.81,42673,5.19,71950.8,-7.83,-22.41,-22.37,0,*59
1513224083.02,42674,5.19,71952.8,-7.83,-22.37,-22.37,0,*5F
1513224084.24,42675,5.19,71956.3,-7.83,-22.27,-22.41,0,*5E
1513224085.45,42676,5.19,71954.8,-7.83,-22.37,-22.37,0,*5D
1513224086.69,42677,5.19,71950.3,-7.81,-22.53,-22.41,0,*5D
1513224087.91,42678,5.19,71938.3,-7.83,-22.57,-22.53,0,*57
1513224089.13,42679,5.25,71934.3,-7.83,-22.57,-22.53,0,*56
1513224090.35,42680,5.19,71934.0,-7.83,-22.57,-22.57,0,*54
1513224091.57,42681,5.19,71942.5,-7.83,-22.67,-22.57,0,*56
1513224092.79,42682,5.19,71938.3,-7.83,-22.67,-22.57,0,*55
1513224094.02,42683,5.19,71930.5,-7.85,-22.67,-22.57,0,*52
1513224095.26,42684,5.19,71932.0,-7.85,-22.67,-22.57,0,*55
1513224096.49,42685,5.19,71938.8,-7.85,-22.67,-22.67,0,*57
1513224097.73,42686,5.19,71942.0,-7.85,-22.57,-22.53,0,*50
1513224098.97,42687,5.19,71928.3,-7.85,-22.67,-22.57,0,*56
1513224100.23,42688,5.19,71928.0,-7.85,-22.73,-22.67,0,*5F
1513224101.46,42689,5.25,71942.0,-7.89,-22.73,-22.67,0,*52
1513224102.7,42690,5.19,71932.0,-7.85,-22.57,-22.57,0,*53
1513224103.95,42691,5.19,71918.3,-7.89,-22.73,-22.73,0,*5E
1513224105.21,42692,5.19,71924.5,-7.85,-22.67,-22.73,0,*54
1513224106.45,42693,5.19,71944.3,-7.85,-22.57,-22.57,0,*50
1513224107.69,42694,5.19,71952.3,-7.85,-22.37,-22.53,0,*55
1513224108.93,42695,5.19,71948.8,-7.85,-22.37,-22.53,0,*54
1513224110.15,42696,5.19,71938.5,-7.89,-22.57,-22.63,0,*5E
1513224111.41,42697,5.25,71942.0,-7.85,-22.57,-22.73,0,*52
1513224112.65,42698,5.19,71902.8,-7.85,-22.57,-22.57,0,*5B
1513224113.89,42699,5.25,71914.3,-7.85,-22.57,-22.67,0,*59
1513224115.13,42700,5.19,71914.3,-7.85,-22.67,-22.57,0,*58
1513224116.37,42701,5.19,71922.0,-7.85,-22.53,-22.53,0,*5A
1513224117.61,42702,5.25,71912.0,-7.85,-22.57,-22.53,0,*5D
1513224118.85,42703,5.19,71906.3,-7.85,-22.57,-22.53,0,*5C
1513224120.1,42704,5.19,71908.3,-7.85,-22.57,-22.57,0,*5F
1513224121.33,42705,5.19,71908.3,-7.85,-22.67,-22.53,0,*59
1513224122.58,42706,5.19,71920.3,-7.85,-22.53,-22.27,0,*5E
1513224123.84,42707,5.19,71930.5,-7.85,-22.57,-22.21,0,*5D
1513224125.1,42708,5.25,71902.0,-7.85,-22.53,-21.97,0,*58
1513224126.37,42709,5.19,71892.5,-7.85,-22.53,-21.97,0,*59
1513224127.64,42710,5.19,71904.8,-7.81,-22.37,-21.87,0,*56
1513224128.87,42711,5.19,71904.3,-7.85,-22.41,-21.93,0,*57
1513224130.13,42712,5.19,71898.5,-7.85,-22.73,-22.03,0,*5F
1513224131.35,42713,5.19,71916.5,-7.83,-22.67,-21.93,0,*57
1513224132.56,42714,5.19,71922.8,-7.83,-22.67,-21.93,0,*50
1513224133.8,42715,5.19,71926.3,-7.81,-22.63,-21.77,0,*5D
1513224135.01,42716,5.19,71926.5,-7.83,-22.67,-21.73,0,*5C
1513224136.27,42717,5.25,71900.8,-7.85,-22.67,-21.57,0,*5D
1513224137.5,42718,5.19,71906.3,-7.85,-22.67,-21.47,0,*53
1513224138.73,42719,5.19,71914.3,-7.83,-22.57,-21.17,0,*52
1513224139.97,42720,5.19,71902.0,-7.85,-22.53,-21.13,0,*5E
1513224141.23,42721,5.19,71934.5,-7.85,-22.57,-21.03,0,*5A
1513224142.48,42722,5.19,71896.3,-7.83,-22.57,-20.83,0,*56
1513224143.73,42723,5.19,71914.8,-7.83,-22.41,-20.53,0,*5D
1513224144.95,42724,5.19,71912.8,-7.83,-22.41,-20.39,0,*56
1513224146.19,42725,5.19,71926.0,-7.85,-22.37,-20.25,0,*5D
1513224147.43,42726,5.19,71914.0,-7.85,-22.37,-20.05,0,*5C
1513224148.67,42727,5.19,71930.0,-7.85,-22.27,-19.91,0,*5B
1513224149.93,42728,5.19,71936.3,-7.85,-22.27,-19.61,0,*5B
1513224151.18,42729,5.19,71942.3,-7.83,-22.27,-19.57,0,*59
1513224152.39,42730,5.19,71920.3,-7.83,-22.11,-19.17,0,*50
1513224153.6,42731,5.19,71914.8,-7.83,-22.07,-19.17,0,*56
1513224154.84,42732,5.19,71916.3,-7.83,-21.97,-18.99,0,*58
1513224156.08,42733,5.19,71924.3,-7.83,-21.83,-18.69,0,*53
1513224157.34,42734,5.19,71922.8,-7.81,-21.73,-18.35,0,*50
1513224158.56,42735,5.19,71924.8,-7.83,-21.73,-18.25,0,*52
1513224159.82,42736,5.19,71930.8,-7.85,-21.43,-17.97,0,*52
1513224161.08,42737,5.19,71926.5,-7.85,-21.43,-17.97,0,*53
1513224162.33,42738,5.25,71930.3,-7.83,-21.27,-17.83,0,*5D
1513224163.57,42739,5.19,71932.8,-7.83,-21.27,-17.83,0,*5C
1513224164.79,42740,5.19,71946.3,-7.83,-21.13,-17.73,0,*5A
1513224166.06,42741,5.19,71932.0,-7.83,-20.99,-17.79,0,*52
1513224167.3,42742,5.19,71934.0,-7.83,-20.83,-17.73,0,*50
1513224168.56,42743,5.19,71932.0,-7.83,-20.79,-17.59,0,*5C
1513224169.8,42744,5.19,71930.0,-7.83,-20.69,-17.79,0,*58
1513224171.04,42745,5.19,71928.0,-7.83,-20.53,-17.73,0,*5A
1513224172.26,42746,5.19,71924.3,-7.83,-20.39,-17.83,0,*5A
1513224173.51,42747,5.19,71916.3,-7.83,-20.25,-17.97,0,*53
1513224174.72,42748,5.19,71914.5,-7.83,-20.09,-18.11,0,*53
1513224175.94,42749,5.19,71922.8,-7.83,-19.91,-18.21,0,*5A
1513224177.19,42750,5.19,71940.0,-7.83,-19.81,-18.35,0,*56
1513224178.43,42751,5.19,71944.0,-7.81,-19.75,-18.65,0,*5B
1513224179.64,42752,5.25,71940.8,-7.83,-19.75,-18.99,0,*59
1513224180.88,42753,5.25,71944.5,-7.83,-19.75,-19.31,0,*5B
1513224182.11,42754,5.25,71950.3,-7.83,-19.81,-19.71,0,*53
1513224183.33,42755,5.19,71926.8,-7.83,-19.91,-19.95,0,*59
1513224184.57,42756,5.19,71926.8,-7.83,-20.09,-20.49,0,*5A
1513224185.85,42757,5.19,71938.8,-7.85,-20.35,-20.99,0,*5F
1513224187.09,42758,5.19,71950.0,-7.85,-20.63,-21.43,0,*55
1513224188.33,42759,5.19,71946.8,-7.83,-20.83,-21.93,0,*51
1513224189.6,42760,5.19,71968.8,-7.89,-21.23,-22.31,0,*51
1513224190.82,42761,5.19,71946.5,-7.89,-21.39,-22.73,0,*5D
1513224192.06,42762,5.19,71942.5,-7.83,-21.63,-23.03,0,*5D
1513224193.33,42763,5.19,71936.8,-7.85,-21.83,-23.39,0,*5D
1513224194.55,42764,5.25,71930.0,-7.89,-22.07,-23.53,0,*55
1513224195.81,42765,5.25,71920.3,-7.89,-22.17,-23.69,0,*5C
1513224197.07,42766,5.19,71908.8,-7.85,-22.27,-23.85,0,*52
1513224198.3,42767,5.25,71930.5,-7.89,-22.31,-23.89,0,*54
1513224199.56,42768,5.19,71926.0,-7.85,-22.41,-23.85,0,*5C
1513224200.83,42769,5.19,71918.8,-7.85,-22.53,-23.85,0,*5E
1513224202.06,42770,5.19,71916.3,-7.89,-22.73,-24.05,0,*57
1513224203.29,42771,5.25,71918.0,-7.89,-22.73,-24.05,0,*56
1513224204.52,42772,5.19,71906.0,-7.89,-22.77,-24.05,0,*51
1513224205.8,42773,5.25,71916.5,-7.85,-22.73,-24.15,0,*59
1513224207.04,42774,5.19,71920.8,-7.89,-22.83,-24.21,0,*5A
1513224208.27,42775,5.19,71918.5,-7.85,-22.87,-24.05,0,*55
1513224209.51,42776,5.19,71918.3,-7.89,-22.97,-24.21,0,*5D
1513224210.78,42777,5.19,71922.0,-7.85,-23.09,-24.21,0,*56
1513224212.05,42778,5.19,71912.8,-7.85,-23.09,-24.21,0,*59
1513224213.29,42779,5.19,71894.8,-7.89,-23.13,-24.25,0,*5B
1513224214.55,42780,5.19,71912.5,-7.89,-23.23,-24.25,0,*5E
1513224215.81,42781,5.19,71918.5,-7.85,-23.19,-24.31,0,*5F
1513224217.07,42782,5.19,71908.3,-7.91,-23.29,-24.51,0,*5C
1513224218.32,42783,5.25,71894.3,-7.91,-23.29,-24.35,0,*5F
1513224219.58,42784,5.19,71908.8,-7.91,-23.39,-24.41,0,*5A
1513224220.81,42785,5.19,71908.5,-7.91,-23.43,-24.35,0,*55
1513224222.07,42786,5.19,71898.8,-7.89,-23.29,-24.25,0,*52
1513224223.28,42787,5.19,71902.5,-7.89,-23.43,-24.35,0,*5E
1513224224.54,42788,5.19,71908.0,-7.91,-23.53,-24.51,0,*5B
1513224225.81,42789,5.19,71908.8,-7.91,-23.43,-24.41,0,*5A
1513224227.04,42790,5.19,71922.3,-7.89,-23.53,-24.51,0,*5B
1513224228.25,42791,5.19,71906.5,-7.89,-23.43,-24.35,0,*59
1513224229.54,42792,5.19,71902.0,-7.91,-23.53,-24.41,0,*51
1513224230.77,42793,5.19,71904.8,-7.91,-23.43,-24.35,0,*52
1513224232.01,42794,5.19,71908.5,-7.91,-23.59,-24.51,0,*5C
1513224233.25,42795,5.25,71924.5,-7.91,-23.59,-24.51,0,*5D
1513224234.48,42796,5.25,71926.0,-7.91,-23.59,-24.57,0,*58
1513224235.75,42797,5.19,71938.5,-7.91,-23.69,-24.67,0,*59
1513224237.03,42798,5.19,71930.5,-7.91,-23.69,-24.67,0,*56
1513224238.24,42799,5.25,71912.8,-7.93,-23.75,-24.61,0,*5E
1513224239.53,42800,5.19,71924.3,-7.91,-23.85,-24.71,0,*5D
1513224240.77,42801,5.19,71922.0,-7.91,-23.75,-24.57,0,*57
1513224242.02,42802,5.19,71930.5,-7.91,-23.69,-24.57,0,*59
1513224243.26,42803,5.19,71932.3,-7.91,-23.75,-24.57,0,*55
1513224244.49,42804,5.19,71926.0,-7.93,-23.75,-24.67,0,*53
1513224245.75,42805,5.19,71930.5,-7.91,-23.85,-24.57,0,*5C
1513224246.98,42806,5.19,71932.5,-7.93,-23.95,-24.77,0,*5E
1513224248.26,42807,5.19,71928.8,-7.91,-23.85,-24.67,0,*5D
1513224249.49,42808,5.19,71928.0,-7.91,-23.89,-24.57,0,*5D
1513224250.73,42809,5.25,71926.5,-7.93,-23.89,-24.71,0,*5A
1513224251.96,42810,5.25,71924.8,-7.91,-23.89,-24.57,0,*54
1513224253.22,42811,5.19,71928.3,-7.93,-23.95,-24.71,0,*5E
1513224254.45,42812,5.19,71928.0,-7.93,-23.95,-24.61,0,*5C
1513224255.68,42813,5.25,71936.5,-7.93,-23.95,-24.47,0,*59
1513224256.91,42814,5.19,71938.5,-7.93,-23.95,-24.57,0,*5F
1513224258.14,42815,5.19,71942.0,-7.93,-23.95,-24.57,0,*5E
1513224259.34,42816,5.19,71946.5,-7.93,-23.89,-24.47,0,*51
1513224260.57,42817,5.25,71952.8,-7.93,-23.95,-24.57,0,*5C
1513224261.8,42818,5.19,71944.8,-7.93,-24.11,-24.47,0,*59
1513224263.04,42819,5.19,71944.3,-7.93,-24.11,-24.47,0,*58
1513224264.27,42820,5.19,71940.3,-7.93,-24.11,-24.57,0,*53
1513224265.52,42821,5.25,71940.0,-7.95,-23.99,-24.47,0,*52
1513224266.78,42822,5.19,71934.8,-7.95,-23.99,-24.47,0,*51
1513224268.04,42823,5.19,71932.8,-7.95,-23.99,-24.57,0,*51
1513224269.29,42824,5.19,71932.0,-7.95,-23.95,-24.57,0,*5A
1513224270.58,42825,5.19,71932.5,-7.95,-23.95,-24.71,0,*5F
1513224271.81,42826,5.25,71940.8,-7.93,-23.89,-24.71,0,*57
1513224273.1,42827,5.19,71928.0,-7.95,-23.95,-24.87,0,*54
1513224274.33,42828,5.19,71926.5,-7.95,-23.89,-24.77,0,*59
1513224275.56,42829,5.19,71918.0,-7.95,-23.79,-24.93,0,*5D
1513224276.82,42830,5.25,71912.5,-7.97,-23.99,-25.03,0,*51
1513224278.08,42831,5.19,71912.5,-7.95,-23.95,-24.97,0,*52
1513224279.34,42832,5.25,71918.0,-7.95,-23.95,-25.13,0,*5C
1513224280.6,42833,5.25,71926.5,-7.97,-23.99,-25.29,0,*5A
1513224281.83,42834,5.19,71910.5,-7.95,-23.89,-25.23,0,*54
1513224283.12,42835,5.19,71898.0,-7.95,-23.95,-25.29,0,*52
1513224284.35,42836,5.19,71914.8,-7.97,-24.15,-25.35,0,*51
1513224285.61,42837,5.19,71912.3,-7.95,-24.11,-25.39,0,*5A
1513224286.87,42838,5.19,71894.0,-7.93,-24.11,-25.45,0,*58
1513224288.15,42839,5.19,71890.5,-7.95,-24.15,-25.45,0,*5B
1513224289.41,42840,5.19,71896.3,-7.95,-24.11,-25.39,0,*5A
1513224290.67,42841,5.19,71902.5,-7.93,-23.99,-25.29,0,*5B
1513224291.93,42842,5.25,71908.3,-7.95,-23.99,-25.39,0,*5F
1513224293.21,42843,5.19,71884.3,-7.95,-24.15,-25.45,0,*56
1513224294.49,42844,5.19,71884.8,-7.95,-24.15,-25.45,0,*51
1513224295.78,42845,5.19,71880.0,-7.95,-24.25,-25.45,0,*53
1513224297.04,42846,5.19,71896.5,-7.95,-24.15,-25.09,0,*5B
1513224298.24,42847,5.19,71904.3,-7.93,-23.89,-24.93,0,*5C
1513224299.45,42848,5.19,71918.8,-7.93,-23.75,-24.97,0,*54
1513224300.66,42849,5.19,71922.5,-7.93,-23.75,-25.23,0,*5B
1513224301.9,42850,5.19,71914.5,-7.93,-23.79,-25.45,0,*5F
1513224303.15,42851,5.19,71916.5,-7.93,-23.95,-25.45,0,*5C
1513224304.44,42852,5.19,71914.0,-7.95,-24.11,-25.71,0,*55
1513224305.68,42853,5.19,71896.3,-7.95,-24.31,-25.87,0,*5F
1513224306.92,42854,5.19,71892.8,-7.95,-24.47,-25.87,0,*59
1513224308.21,42855,5.25,71910.3,-7.95,-24.25,-25.71,0,*55
1513224309.51,42856,5.19,71890.8,-7.95,-24.25,-25.75,0,*52
1513224310.75,42857,5.19,71904.0,-7.95,-24.47,-25.87,0,*5A
1513224311.96,42858,5.25,71894.0,-7.93,-24.31,-25.87,0,*52
1513224313.23,42859,5.19,71896.3,-7.93,-24.25,-25.71,0,*5F
1513224314.46,42860,5.19,71916.0,-7.93,-24.41,-25.91,0,*59
1513224315.68,42861,5.19,71900.5,-7.93,-24.31,-25.87,0,*58
1513224316.89,42862,5.19,71894.0,-7.93,-24.31,-25.87,0,*5B
1513224318.19,42863,5.19,71894.3,-7.91,-24.21,-25.71,0,*50
1513224319.39,42864,5.19,71902.5,-7.93,-24.57,-25.91,0,*5A
1513224320.62,42865,5.19,71896.3,-7.93,-24.41,-25.91,0,*5C
1513224321.9,42866,5.19,71910.0,-7.91,-24.51,-25.97,0,*5A
1513224323.11,42867,5.19,71898.3,-7.93,-24.47,-26.03,0,*50
1513224324.32,42868,5.19,71906.8,-7.93,-24.57,-26.07,0,*5A
1513224325.58,42869,5.19,71898.8,-7.91,-24.57,-26.17,0,*58
1513224326.82,42870,5.25,71900.0,-7.93,-24.87,-26.39,0,*53
1513224328.03,42871,5.19,71902.0,-7.93,-24.77,-26.39,0,*5D
1513224329.32,42872,5.25,71906.0,-7.91,-24.67,-26.17,0,*51
1513224330.58,42873,5.19,71878.5,-7.91,-24.57,-26.17,0,*53
1513224331.79,42874,5.25,71884.5,-7.89,-24.57,-26.03,0,*58
1513224333.05,42875,5.25,71896.3,-7.91,-24.67,-26.23,0,*51
1513224334.31,42876,5.19,71890.5,-7.91,-24.87,-26.49,0,*50
1513224335.52,42877,5.25,71894.8,-7.93,-24.93,-26.55,0,*5B
1513224336.75,42878,5.19,71896.0,-7.91,-24.93,-26.65,0,*55
1513224338.02,42879,5.19,71902.0,-7.93,-24.71,-26.33,0,*59
1513224339.28,42880,5.25,71902.0,-7.91,-24.83,-26.49,0,*5D
1513224340.53,42881,5.19,71904.0,-7.91,-24.87,-26.49,0,*58
1513224341.82,42882,5.25,71906.0,-7.91,-25.03,-26.81,0,*52
1513224343.08,42883,5.19,71920.3,-7.91,-25.19,-26.81,0,*58
1513224344.36,42884,5.19,71896.3,-7.91,-25.03,-26.55,0,*5D
1513224345.62,42885,5.19,71908.5,-7.91,-25.09,-26.81,0,*5F
1513224346.88,42886,5.19,71912.8,-7.91,-25.19,-26.81,0,*5D
1513224348.13,42887,5.25,71914.0,-7.91,-25.23,-26.81,0,*55
1513224349.36,42888,5.19,71916.3,-7.93,-25.39,-26.93,0,*50
1513224350.62,42889,5.25,71928.3,-7.91,-25.39,-26.97,0,*57
1513224351.85,42890,5.19,71930.8,-7.91,-25.35,-26.87,0,*52
1513224353.08,42891,5.19,71930.8,-7.93,-25.45,-27.03,0,*5B
1513224354.34,42892,5.25,71936.8,-7.91,-25.35,-26.97,0,*51
1513224355.54,42893,5.19,71940.0,-7.93,-25.39,-27.03,0,*52
1513224356.75,42894,5.19,71938.3,-7.93,-25.61,-27.13,0,*59
1513224358.01,42895,5.25,71934.8,-7.93,-25.55,-27.23,0,*5C
1513224359.24,42896,5.25,71942.5,-7.93,-25.55,-27.03,0,*5D
1513224360.5,42897,5.19,71944.3,-7.93,-25.55,-27.23,0,*5E
1513224361.71,42898,5.19,71924.5,-7.93,-25.61,-27.13,0,*55
1513224362.94,42899,5.19,71958.0,-7.93,-25.61,-27.23,0,*57
1513224364.19,42900,5.19,71924.5,-7.95,-25.39,-26.93,0,*57
1513224365.42,42901,5.19,71910.0,-7.95,-25.13,-26.87,0,*5B
1513224366.65,42902,5.25,71916.8,-7.91,-25.35,-26.87,0,*58
1513224367.86,42903,5.19,71908.5,-7.93,-25.61,-27.13,0,*56
1513224369.11,42904,5.19,71906.5,-7.95,-25.55,-27.13,0,*50
1513224370.35,42905,5.19,71906.5,-7.93,-25.55,-27.13,0,*57
1513224371.58,42906,5.19,71918.5,-7.93,-25.61,-27.23,0,*50
1513224372.81,42907,5.19,71930.0,-7.93,-25.61,-27.23,0,*51
1513224374.02,42908,5.19,71928.8,-7.93,-25.87,-27.29,0,*5C
1513224375.25,42909,5.19,71932.5,-7.95,-25.87,-27.29,0,*5B
1513224376.49,42910,5.19,71934.5,-7.97,-25.81,-27.29,0,*57
1513224377.77,42911,5.25,71940.5,-7.95,-25.75,-27.23,0,*55
1513224379.01,42912,5.19,71938.8,-7.95,-25.87,-27.13,0,*58
1513224380.23,42913,5.25,71952.8,-7.95,-25.91,-27.13,0,*5E
1513224381.49,42914,5.19,71956.5,-7.95,-25.91,-27.23,0,*5A
1513224382.72,42915,5.25,71940.8,-7.95,-26.07,-27.13,0,*54
1513224383.96,42916,5.19,71936.5,-7.95,-26.03,-27.13,0,*53
1513224385.22,42917,5.25,71932.0,-7.97,-26.13,-26.97,0,*5C
1513224386.47,42918,5.19,71932.8,-7.95,-26.07,-26.77,0,*5A
1513224387.75,42919,5.19,71938.3,-7.95,-26.13,-26.71,0,*58
1513224388.99,42920,5.19,71946.8,-7.95,-26.03,-26.61,0,*52
1513224390.23,42921,5.19,71946.5,-7.95,-26.07,-26.61,0,*57
1513224391.49,42922,5.19,71928.8,-7.97,-26.17,-26.77,0,*50
1513224392.77,42923,5.19,71934.8,-7.95,-26.29,-26.81,0,*57
1513224394.03,42924,5.19,71930.3,-7.95,-26.23,-26.77,0,*53
1513224395.31,42925,5.19,71928.5,-7.95,-26.29,-26.77,0,*58
1513224396.54,42926,5.19,71924.5,-7.97,-26.45,-26.77,0,*53
1513224397.81,42927,5.19,71920.0,-7.97,-26.33,-26.77,0,*53
1513224399.08,42928,5.19,71912.0,-7.97,-26.33,-26.77,0,*5C
1513224400.31,42929,5.19,71914.8,-7.97,-26.45,-26.77,0,*5C
1513224401.58,42930,5.19,71916.3,-7.97,-26.33,-26.81,0,*5C
1513224402.81,42931,5.19,71920.5,-7.97,-26.45,-26.93,0,*5F
1513224404.05,42932,5.25,71922.5,-7.97,-26.45,-26.77,0,*56
1513224405.31,42933,5.19,71920.5,-7.97,-26.29,-26.77,0,*5D
1513224406.55,42934,5.19,71924.0,-7.97,-26.17,-26.61,0,*50
1513224407.78,42935,5.19,71918.5,-7.97,-26.17,-26.49,0,*5B
1513224409.06,42936,5.19,71918.5,-7.95,-26.29,-26.71,0,*5C
1513224410.29,42937,5.25,71918.8,-7.97,-26.45,-26.93,0,*59
1513224411.52,42938,5.19,71924.8,-7.97,-26.61,-26.93,0,*50
1513224412.79,42939,5.19,71924.5,-7.97,-26.33,-26.77,0,*5C
1513224414.02,42940,5.19,71924.5,-7.97,-26.61,-26.93,0,*5F
1513224415.26,42941,5.25,71932.0,-7.97,-26.61,-26.93,0,*5E
1513224416.5,42942,5.19,71928.0,-7.97,-26.65,-26.97,0,*5D
1513224417.77,42943,5.19,71932.3,-7.99,-26.81,-27.13,0,*55
1513224419.02,42944,5.19,71928.8,-7.99,-26.87,-27.23,0,*57
1513224420.29,42945,5.19,71922.8,-7.99,-26.87,-27.23,0,*56
1513224421.55,42946,5.19,71914.8,-7.99,-26.97,-27.13,0,*57
1513224422.79,42947,5.25,71904.8,-7.99,-27.13,-27.13,0,*5B
1513224424.03,42948,5.19,71896.0,-7.99,-26.87,-27.03,0,*59
1513224425.32,42949,5.25,71904.0,-7.99,-26.97,-26.97,0,*55
1513224426.56,42950,5.19,71910.0,-7.99,-26.87,-27.03,0,*50
1513224427.81,42951,5.19,71916.5,-8.01,-26.97,-27.03,0,*5E
1513224429.08,42952,5.19,71908.5,-7.99,-26.81,-27.03,0,*54
1513224430.34,42953,5.19,71904.0,-7.99,-26.81,-27.13,0,*54
1513224431.59,42954,5.19,71896.0,-8.01,-26.81,-27.03,0,*5C
1513224432.88,42955,5.19,71888.8,-7.99,-26.81,-27.23,0,*51
1513224434.17,42956,5.19,71900.3,-7.99,-26.71,-27.35,0,*5A
1513224435.46,42957,5.19,71904.3,-7.99,-26.71,-27.39,0,*57
1513224436.7,42958,5.19,71906.8,-8.01,-26.81,-27.55,0,*53
1513224437.93,42959,5.19,71904.5,-8.01,-26.87,-27.83,0,*5F
1513224439.16,42960,5.25,71914.5,-8.01,-26.71,-27.55,0,*57
1513224440.42,42961,5.25,71908.3,-8.01,-26.71,-27.23,0,*57
1513224441.69,42962,5.19,71910.3,-7.99,-26.39,-27.23,0,*56
1513224442.92,42963,5.19,71910.0,-8.01,-26.71,-27.89,0,*55
1513224444.16,42964,5.19,71906.5,-8.01,-26.87,-28.05,0,*50
1513224445.45,42965,5.25,71902.0,-7.99,-27.23,-28.25,0,*52
1513224446.74,42966,5.25,71906.3,-7.99,-27.35,-28.25,0,*56
1513224448.03,42967,5.19,71912.3,-7.99,-27.35,-28.25,0,*57
1513224449.28,42968,5.19,71926.0,-8.01,-27.23,-28.43,0,*51
1513224450.54,42969,5.19,71930.5,-7.99,-27.35,-28.37,0,*5A
1513224451.78,42970,5.19,71930.0,-8.01,-27.39,-28.37,0,*50
1513224452.99,42971,5.25,71928.0,-8.01,-27.55,-28.53,0,*59
1513224454.25,42972,5.19,71934.3,-7.99,-27.55,-28.43,0,*55
1513224455.51,42973,5.19,71918.5,-7.99,-27.51,-28.43,0,*50
1513224456.75,42974,5.19,71918.5,-8.01,-27.67,-28.59,0,*57
1513224458.05,42975,5.19,71924.8,-8.03,-27.61,-28.63,0,*5B
1513224459.34,42976,5.19,71926.0,-8.03,-27.61,-28.75,0,*5F
1513224460.62,42977,5.19,71924.3,-8.03,-27.61,-28.79,0,*52
1513224461.85,42978,5.25,71934.0,-8.01,-27.71,-28.75,0,*52
1513224463.11,42979,5.19,71934.3,-8.03,-27.71,-28.91,0,*5B
1513224464.38,42980,5.19,71930.5,-8.03,-27.61,-28.97,0,*5A
1513224465.61,42981,5.19,71934.3,-8.03,-27.77,-29.07,0,*54
1513224466.81,42982,5.25,71944.8,-8.05,-27.71,-28.97,0,*5F
1513224468.04,42983,5.25,71946.5,-8.05,-27.77,-29.13,0,*55
1513224469.29,42984,5.19,71940.8,-8.03,-27.71,-29.13,0,*52
1513224470.52,42985,5.19,71950.3,-8.05,-27.77,-29.13,0,*53
1513224471.72,42986,5.25,71954.0,-8.05,-27.77,-29.23,0,*53
1513224472.95,42987,5.25,71948.3,-8.03,-27.77,-29.23,0,*54
1513224474.18,42988,5.25,71950.3,-8.03,-27.89,-29.23,0,*5A
1513224475.41,42989,5.19,71934.8,-8.05,-27.77,-29.13,0,*5F
1513224476.66,42990,5.25,71932.5,-8.03,-27.77,-29.13,0,*51
1513224477.89,42991,5.19,71928.3,-8.05,-27.93,-29.13,0,*5C
1513224479.11,42992,5.25,71930.0,-8.05,-27.89,-29.13,0,*54
1513224480.31,42993,5.25,71934.5,-8.05,-27.93,-29.23,0,*5D
1513224481.54,42994,5.25,71930.8,-8.05,-28.09,-29.23,0,*56
1513224482.79,42995,5.25,71932.8,-8.05,-28.09,-29.29,0,*5D
1513224484.05,42996,5.19,71920.0,-8.03,-28.21,-29.23,0,*58
1513224485.31,42997,5.19,71912.3,-8.05,-28.25,-29.39,0,*50
1513224486.57,42998,5.19,71908.3,-8.05,-28.25,-29.39,0,*5F
1513224487.82,42999,5.19,71910.5,-8.05,-28.25,-29.29,0,*5F
1513224489.06,43000,5.25,71918.8,-8.05,-28.25,-29.23,0,*5D
1513224490.29,43001,5.19,71908.8,-8.05,-28.21,-29.23,0,*58
1513224491.52,43002,5.25,71920.8,-8.05,-28.09,-29.23,0,*51
1513224492.75,43003,5.19,71916.3,-8.05,-28.25,-29.23,0,*5E
1513224494.03,43004,5.19,71922.0,-8.03,-28.25,-29.29,0,*55
1513224495.29,43005,5.19,71910.5,-8.07,-28.25,-29.23,0,*5A
1513224496.55,43006,5.25,71900.3,-8.07,-28.25,-29.23,0,*59
1513224497.8,43007,5.25,71908.5,-8.07,-28.21,-29.23,0,*5C
1513224499.09,43008,5.19,71898.0,-8.11,-28.25,-29.29,0,*5A
1513224500.37,43009,5.25,71898.8,-8.07,-28.21,-29.13,0,*51
1513224501.65,43010,5.19,71884.0,-8.07,-28.21,-29.13,0,*59
1513224502.93,43011,5.19,71888.0,-8.07,-28.25,-29.13,0,*5C
1513224504.19,43012,5.19,71892.0,-8.05,-28.25,-29.13,0,*5D
1513224505.41,43013,5.25,71898.8,-8.03,-28.31,-29.23,0,*5C
1513224506.67,43014,5.25,71898.0,-8.05,-28.25,-29.13,0,*5B